TimeEDT,TemperatureF,Dew PointF,Humidity,Sea Level PressureIn,VisibilityMPH,Wind Direction,Wind SpeedMPH,Gust SpeedMPH,PrecipitationIn,Events,Conditions,WindDirDegrees,DateUTC
12:53 AM,36.0,21.0,55,29.84,10.0,North,10.4,-,N/A,,Overcast,350,2013-03-21 04:53:00
2:53 AM,33.1,19.0,56,29.83,10.0,NNW,4.6,-,N/A,,Overcast,340,2013-03-21 06:53:00
3:53 AM,32.0,15.1,50,29.81,10.0,NNW,5.8,-,N/A,,Overcast,330,2013-03-21 07:53:00
4:53 AM,30.9,15.1,52,29.80,10.0,NW,5.8,-,N/A,,Overcast,320,2013-03-21 08:53:00
5:53 AM,28.9,14.0,54,29.80,10.0,NNW,4.6,-,N/A,,Partly Cloudy,330,2013-03-21 09:53:00
6:53 AM,28.9,15.1,56,29.81,10.0,WNW,5.8,-,N/A,,Overcast,300,2013-03-21 10:53:00
7:53 AM,28.9,18.0,64,29.81,10.0,Calm,Calm,-,N/A,,Overcast,0,2013-03-21 11:53:00
8:53 AM,28.9,14.0,54,29.82,10.0,NNW,4.6,-,N/A,,Mostly Cloudy,340,2013-03-21 12:53:00
9:53 AM,32.0,14.0,48,29.80,10.0,North,8.1,-,N/A,,Partly Cloudy,360,2013-03-21 13:53:00
10:53 AM,32.0,14.0,48,29.80,10.0,NW,9.2,-,0.00,,Overcast,310,2013-03-21 14:53:00
11:53 AM,32.0,15.1,50,29.79,9.0,NW,10.4,-,0.00,,Mostly Cloudy,320,2013-03-21 15:53:00
12:53 PM,34.0,12.0,40,29.78,10.0,WNW,15.0,23.0,N/A,,Partly Cloudy,300,2013-03-21 16:53:00
1:53 PM,30.9,14.0,50,29.78,10.0,NNW,9.2,-,0.00,,Overcast,330,2013-03-21 17:53:00
2:53 PM,35.1,9.0,34,29.75,10.0,NW,15.0,23.0,N/A,,Partly Cloudy,310,2013-03-21 18:53:00
3:53 PM,33.1,8.1,35,29.75,10.0,WNW,15.0,21.9,N/A,,Mostly Cloudy,290,2013-03-21 19:53:00
4:53 PM,32.0,8.1,37,29.75,10.0,WNW,13.8,20.7,N/A,,Mostly Cloudy,290,2013-03-21 20:53:00
5:53 PM,32.0,9.0,38,29.78,10.0,WNW,12.7,23.0,N/A,,Overcast,300,2013-03-21 21:53:00
6:53 PM,30.0,8.1,40,29.81,10.0,WNW,16.1,23.0,N/A,,Overcast,300,2013-03-21 22:53:00
7:53 PM,28.9,10.0,45,29.83,10.0,WNW,8.1,-,N/A,,Overcast,300,2013-03-21 23:53:00
8:53 PM,28.0,10.0,47,29.85,10.0,West,3.5,-,N/A,,Mostly Cloudy,280,2013-03-22 00:53:00
9:53 PM,27.0,10.9,51,29.86,10.0,West,5.8,-,N/A,,Mostly Cloudy,270,2013-03-22 01:53:00
10:53 PM,27.0,10.9,51,29.86,10.0,West,5.8,-,N/A,,Partly Cloudy,270,2013-03-22 02:53:00
11:53 PM,26.1,12.0,55,29.86,10.0,West,5.8,-,N/A,,Clear,260,2013-03-22 03:53:00